Nogales, AZ

11:17 AM MST on September 30, 2016 (GMT -0700)
Nogales International

Weather History for KOLS - November, 2012

Change the Weather History Date:

Thursday, November 8, 2012

  Actual Average (KTUS) Record (KTUS)
Temperature  
Mean Temperature 68 °F 63 °F  
Max Temperature 81 °F 77 °F 91 °F (1906)
Min Temperature 55 °F 49 °F 27 °F (1924)
Degree Days  
Heating Degree Days 0 4  
Month to date heating degree days 25  
Since 1 July heating degree days 49  
Cooling Degree Days 3 1  
Month to date cooling degree days 17  
Year to date cooling degree days 3136  
Growing Degree Days 18 (Base 50)    
Moisture  
Dew Point 34 °F    
Average Humidity 34    
Maximum Humidity 60    
Minimum Humidity 14    
Precipitation  
Precipitation 0.00 in 0.02 in 0.88 in (1905)
Month to date precipitation 0.14  
Year to date precipitation 10.23  
Sea Level Pressure  
Sea Level Pressure 29.90 in    
Wind  
Wind Speed 4 mph (South)    
Max Wind Speed 16 mph    
Max Gust Speed 24 mph    
Visibility 10 miles    
Events Rain    
T = Trace of Precipitation, MM = Missing Value Source: NWS Daily Summary

Daily Weather History Graph

Daily Weather History Graph

Search for Another Location

Airport or City:

Trip Planner

Search our weather history database for the weather conditions in past years. The results will help you decide how hot, cold, wet, or windy it might be!

Date:

Astronomy

Nov. 08, 2012 Rise Set
Actual Time 6:45 AM MST 5:28 PM MST
Civil Twilight 6:20 AM MST 5:53 PM MST
Nautical Twilight 5:51 AM MST 6:22 PM MST
Astronomical Twilight 5:22 AM MST 6:51 PM MST
Moon 1:05 AM MST (11/8) 1:52 PM MST (11/8)
Length of Visible Light 11h 33m
Length of Day
10h 43m
Waning Crescent, 32% of the Moon is Illuminated
Nov 8
Waning Crescent
Nov 13
New
Nov 20
First Quarter
Nov 28
Full
Dec 6
Last Quarter

Hourly Weather History & Observations

Time (MST) Temp. Dew Point Humidity Pressure Visibility Wind Dir Wind Speed Gust Speed Precip Events Conditions
12:54 AM 61.0 °F 28.0 °F 29% 29.86 in 10.0 mi Calm Calm - N/A   Clear
1:54 AM 59.0 °F 28.0 °F 31% 29.86 in 10.0 mi Calm Calm - N/A   Clear
2:54 AM 55.9 °F 28.9 °F 36% 29.86 in 10.0 mi Calm Calm - N/A   Clear
3:54 AM 59.0 °F 28.9 °F 32% 29.86 in 10.0 mi ESE 3.5 mph - N/A   Clear
4:54 AM 57.0 °F 28.9 °F 34% 29.87 in 10.0 mi Calm Calm - N/A   Clear
5:54 AM 55.9 °F 30.0 °F 37% 29.88 in 10.0 mi Calm Calm - N/A   Clear
6:54 AM 57.0 °F 28.9 °F 34% 29.91 in 10.0 mi East 3.5 mph - N/A   Clear
7:54 AM 57.9 °F 32.0 °F 37% 29.93 in 10.0 mi Calm Calm - N/A   Clear
8:54 AM 63.0 °F 30.9 °F 30% 29.94 in 10.0 mi Calm Calm - N/A   Clear
9:54 AM - - N/A% 30.08 in - North - - N/A   Clear
10:54 AM 75.0 °F 28.9 °F 18% 29.91 in 10.0 mi WSW 3.5 mph - N/A   Clear
11:54 AM 79.0 °F 28.0 °F 15% 29.87 in 10.0 mi SSW 11.5 mph - N/A   Clear
12:54 PM 81.0 °F 27.0 °F 14% 29.84 in 10.0 mi SSW 12.7 mph 20.7 mph N/A   Clear
1:54 PM 78.1 °F 28.0 °F 16% 29.83 in 10.0 mi SW 16.1 mph - N/A   Mostly Cloudy
2:54 PM 73.0 °F 34.0 °F 24% 29.88 in 10.0 mi SSW 9.2 mph - 0.00 in   Overcast
3:54 PM 72.0 °F 37.9 °F 29% 29.86 in 10.0 mi ESE 8.1 mph - N/A   Overcast
4:54 PM 72.0 °F 37.9 °F 29% 29.87 in 10.0 mi SSW 11.5 mph - N/A   Mostly Cloudy
5:54 PM 69.1 °F 39.0 °F 33% 29.90 in 10.0 mi West 12.7 mph - 0.00 in   Overcast
6:54 PM 64.9 °F 39.9 °F 40% 29.91 in 10.0 mi Calm Calm - 0.00 in   Overcast
7:54 PM 64.0 °F 41.0 °F 43% 29.93 in 10.0 mi Calm Calm - 0.00 in Rain Light Rain
8:54 PM 61.0 °F 46.0 °F 58% 29.89 in 10.0 mi SE 13.8 mph 24.2 mph 0.00 in Rain Light Rain
9:54 PM 59.0 °F 45.0 °F 60% 30.05 in 10.0 mi South 8.1 mph - 0.00 in   Clear
10:54 PM 59.0 °F 45.0 °F 60% 29.90 in 10.0 mi South 9.2 mph - N/A   Mostly Cloudy
11:54 PM 62.1 °F 44.1 °F 52% 29.85 in 10.0 mi SE 10.4 mph - 0.00 in   Clear